Weather History for KART - November, 2013

Change the Weather History Date:

Thursday, November 14, 2013

  Actual Average Record
Temperature  
Mean Temperature 41 °F 39 °F  
Max Temperature 47 °F 48 °F 68 °F (1994)
Min Temperature 34 °F 30 °F 13 °F (1996)
Degree Days  
Heating Degree Days 24 26  
Month to date heating degree days 352 334  
Since 1 July heating degree days 1040 1130  
Cooling Degree Days 0 0  
Month to date cooling degree days 0 0  
Year to date cooling degree days 481 362  
Moisture  
Dew Point 28 °F    
Average Humidity 49    
Maximum Humidity 67    
Minimum Humidity 31    
Precipitation  
Precipitation 0.00 in 0.12 in 0.90 in (1985)
Month to date precipitation 1.87 1.71  
Year to date precipitation 31.06 30.88  
Sea Level Pressure  
Sea Level Pressure 30.03 in    
Wind  
Wind Speed 14 mph (SW)    
Max Wind Speed 28 mph    
Max Gust Speed 37 mph    
Visibility 10 miles    
Events      
T = Trace of Precipitation, MM = Missing Value Source: NWS Daily Summary

Daily Weather History Graph

Daily Weather History Graph

Search for Another Location

Airport or City:

Trip Planner

Search our weather history database for the weather conditions in past years. The results will help you decide how hot, cold, wet, or windy it might be!

Date:

Astronomy

Nov. 14, 2013 Rise Set
Actual Time 6:58 AM EST 4:38 PM EST
Civil Twilight 6:26 AM EST 5:09 PM EST
Nautical Twilight 5:52 AM EST 5:44 PM EST
Astronomical Twilight 5:17 AM EST 6:18 PM EST
Moon 3:03 PM EST (11/14) 3:45 AM EST (11/14)
Length of Visible Light 10h 42m
Length of Day
9h 40m
Waxing Gibbous, 91% of the Moon is Illuminated
Nov 14
Waxing Gibbous
Nov 17
Full
Nov 25
Last Quarter
Dec 2
New
Dec 9
First Quarter

Hourly Weather History & Observations

Time (EST) Temp. Windchill Dew Point Humidity Pressure Visibility Wind Dir Wind Speed Gust Speed Precip Events Conditions
12:56 AM 34.0 °F 25.5 °F 23.0 °F 64% 30.03 in 10.0 mi SSW 11.5 mph 21.9 mph N/A   Clear
1:56 AM 35.1 °F 28.6 °F 23.0 °F 61% 30.05 in 10.0 mi South 8.1 mph - N/A   Overcast
2:56 AM 39.9 °F 31.8 °F 28.0 °F 63% 30.04 in 10.0 mi SSW 15.0 mph 28.8 mph N/A   Overcast
3:56 AM 41.0 °F 33.9 °F 30.0 °F 65% 30.03 in 10.0 mi SSW 12.7 mph 23.0 mph N/A   Overcast
4:03 AM 42.8 °F 35.4 °F 30.2 °F 61% 30.02 in 10.0 mi SW 15.0 mph 20.7 mph N/A   Overcast
4:13 AM 42.8 °F 35.8 °F 32.0 °F 66% 30.02 in 10.0 mi SW 13.8 mph 26.5 mph N/A   Overcast
4:56 AM 44.1 °F 35.4 °F 33.1 °F 65% 30.03 in 10.0 mi WSW 21.9 mph 33.4 mph N/A   Overcast
5:56 AM 43.0 °F 33.5 °F 30.9 °F 62% 30.04 in 10.0 mi West 24.2 mph 32.2 mph N/A   Overcast
6:56 AM 43.0 °F 34.8 °F 32.0 °F 65% 30.04 in 10.0 mi West 18.4 mph 31.1 mph N/A   Overcast
7:56 AM 42.1 °F 34.2 °F 30.0 °F 62% 30.06 in 10.0 mi West 16.1 mph 28.8 mph N/A   Overcast
9:56 AM 44.1 °F 35.9 °F 30.9 °F 60% 30.06 in 10.0 mi WSW 19.6 mph 29.9 mph N/A   Mostly Cloudy
10:56 AM 45.0 °F 36.9 °F 32.0 °F 60% 30.06 in 10.0 mi WSW 20.7 mph 32.2 mph N/A   Overcast
11:56 AM 44.1 °F 36.2 °F 34.0 °F 68% 30.04 in 10.0 mi SW 18.4 mph 28.8 mph N/A   Overcast
12:07 PM 44.6 °F 36.6 °F 33.8 °F 66% 30.03 in 10.0 mi SW 19.6 mph 31.1 mph N/A   Overcast
12:56 PM 44.1 °F 36.2 °F 33.1 °F 65% 30.04 in 10.0 mi SW 18.4 mph 31.1 mph N/A   Overcast
1:56 PM 45.0 °F 38.2 °F 34.0 °F 65% 30.03 in 10.0 mi SW 15.0 mph 26.5 mph N/A   Overcast
2:36 PM 46.4 °F 39.0 °F 32.0 °F 57% 30.02 in 10.0 mi SW 19.6 mph 28.8 mph N/A   Overcast
2:56 PM 46.9 °F - 30.9 °F 54% 30.02 in 10.0 mi SW 18.4 mph 27.6 mph N/A   Partly Cloudy
3:56 PM 46.0 °F 40.6 °F 28.9 °F 51% 30.02 in 10.0 mi SW 11.5 mph 24.2 mph N/A   Clear
4:56 PM 44.1 °F 39.5 °F 28.0 °F 53% 30.01 in 10.0 mi SSW 8.1 mph - N/A   Clear
5:56 PM 41.0 °F 37.1 °F 28.0 °F 60% 30.01 in 10.0 mi SSW 5.8 mph - N/A   Clear
6:56 PM 39.9 °F - 27.0 °F 60% 30.00 in 10.0 mi Calm Calm - N/A   Clear
7:56 PM 44.1 °F 39.0 °F 21.0 °F 40% 30.00 in 10.0 mi SSW 9.2 mph - N/A   Clear
8:56 PM 45.0 °F 41.2 °F 23.0 °F 42% 30.01 in 10.0 mi SSW 6.9 mph - N/A   Mostly Cloudy
9:56 PM 46.9 °F - 19.0 °F 33% 30.01 in 10.0 mi SSW 10.4 mph - N/A   Overcast
10:56 PM 46.0 °F 41.0 °F 17.1 °F 31% 30.01 in 10.0 mi SSW 10.4 mph - N/A   Clear
11:56 PM 45.0 °F 40.1 °F 18.0 °F 34% 30.03 in 10.0 mi SSW 9.2 mph - N/A   Clear